When you browse on this site, cookies collect data to enhance your experience and personalize the content and advertising you see.
Visit our Privacy Policy to learn more. By continuing to use the site, you agree to this use of cookies and data.
  • In Portugal
  • List of Countries
  • For 7 days
  • Water Temperature
  • Satellite Maps
  • Weather Map
  • Weather Widgets
  • user-avatar
    Login

    Hourly Weather Newcastle

    Today, 23 May, Thursday

    Time Temperature Precipitation Wind Pressure Humidity
    00:00 +16°C° 0 mm 1 mps 769 mmHg 95%
    01:00 +16°C° 0 mm 2 mps 769 mmHg 96%
    02:00 +16°C° 0.1 mm 2 mps 769 mmHg 97%
    03:00 +16°C° 0.1 mm 2 mps 769 mmHg 97%
    04:00 +15°C° 0 mm 2 mps 769 mmHg 98%
    05:00 +15°C° 0 mm 2 mps 769 mmHg 98%
    06:00 +15°C° 0 mm 2 mps 769 mmHg 99%
    07:00 +15°C° 0 mm 2 mps 769 mmHg 99%
    08:00 +17°C° 0 mm 2 mps 769 mmHg 91%
    09:00 +19°C° 0 mm 2 mps 769 mmHg 84%
    10:00 +21°C° 0 mm 2 mps 769 mmHg 76%
    11:00 +23°C° 0 mm 2 mps 769 mmHg 69%
    12:00 +25°C° 0 mm 1 mps 768 mmHg 62%
    13:00 +26°C° 0 mm 1 mps 768 mmHg 54%
    14:00 +25°C° 0 mm 1 mps 768 mmHg 59%
    15:00 +24°C° 0 mm 2 mps 767 mmHg 63%
    16:00 +23°C° 0 mm 2 mps 767 mmHg 67%
    17:00 +21°C° 0.1 mm 1 mps 767 mmHg 75%
    18:00 +20°C° 0.1 mm 1 mps 768 mmHg 83%
    19:00 +18°C° 0.1 mm 1 mps 768 mmHg 91%
    20:00 +16°C° 0 mm 1 mps 768 mmHg 92%
    21:00 +16°C° 0 mm 1 mps 768 mmHg 92%
    22:00 +16°C° 0 mm 2 mps 768 mmHg 93%
    23:00 +15°C° 0 mm 2 mps 768 mmHg 93%

    Tomorrow, 24 May, Friday

    Time Temperature Precipitation Wind Pressure Humidity
    00:00 +15°C° 0 mm 2 mps 767 mmHg 92%
    01:00 +15°C° 0 mm 2 mps 767 mmHg 92%
    02:00 +14°C° 0 mm 2 mps 767 mmHg 93%
    03:00 +14°C° 0 mm 2 mps 767 mmHg 93%
    04:00 +14°C° 0 mm 2 mps 766 mmHg 93%
    05:00 +14°C° 0 mm 2 mps 767 mmHg 93%
    06:00 +14°C° 0 mm 2 mps 767 mmHg 92%
    07:00 +13°C° 0 mm 2 mps 767 mmHg 92%
    08:00 +16°C° 0 mm 2 mps 767 mmHg 83%
    09:00 +18°C° 0 mm 2 mps 767 mmHg 74%
    10:00 +20°C° 0 mm 2 mps 767 mmHg 66%
    11:00 +23°C° 0 mm 2 mps 766 mmHg 58%
    12:00 +24°C° 0 mm 2 mps 765 mmHg 50%
    13:00 +26°C° 0 mm 1 mps 765 mmHg 42%
    14:00 +25°C° 0 mm 1 mps 764 mmHg 45%
    15:00 +24°C° 0 mm 2 mps 764 mmHg 49%
    16:00 +23°C° 0 mm 2 mps 764 mmHg 52%
    17:00 +21°C° 0 mm 2 mps 764 mmHg 56%
    18:00 +19°C° 0 mm 3 mps 765 mmHg 59%
    19:00 +18°C° 0 mm 3 mps 765 mmHg 63%
    20:00 +17°C° 0 mm 3 mps 765 mmHg 63%
    21:00 +16°C° 0 mm 3 mps 765 mmHg 63%
    22:00 +16°C° 0 mm 3 mps 765 mmHg 63%
    23:00 +14°C° 0 mm 3 mps 765 mmHg 61%

    Day after tomorrow, 25 May, Saturday

    Time Temperature Precipitation Wind Pressure Humidity
    00:00 +14°C° 0 mm 3 mps 765 mmHg 59%
    01:00 +13°C° 0 mm 3 mps 764 mmHg 57%
    02:00 +13°C° 0 mm 3 mps 764 mmHg 57%
    03:00 +13°C° 0 mm 3 mps 764 mmHg 57%
    04:00 +13°C° 0 mm 3 mps 764 mmHg 58%
    05:00 +13°C° 0 mm 3 mps 764 mmHg 59%
    06:00 +13°C° 0 mm 3 mps 764 mmHg 59%
    07:00 +13°C° 0 mm 3 mps 764 mmHg 60%
    08:00 +16°C° 0 mm 3 mps 764 mmHg 56%
    09:00 +19°C° 0 mm 3 mps 764 mmHg 52%
    10:00 +21°C° 0 mm 3 mps 764 mmHg 49%
    11:00 +22°C° 0 mm 3 mps 763 mmHg 45%
    12:00 +25°C° 0 mm 3 mps 763 mmHg 42%
    13:00 +26°C° 0 mm 2 mps 762 mmHg 39%
    14:00 +26°C° 0 mm 2 mps 762 mmHg 43%
    15:00 +25°C° 0 mm 2 mps 761 mmHg 47%
    16:00 +24°C° 0 mm 2 mps 761 mmHg 51%
    17:00 +21°C° 0 mm 2 mps 761 mmHg 54%
    18:00 +20°C° 0 mm 3 mps 762 mmHg 58%
    19:00 +18°C° 0 mm 3 mps 762 mmHg 61%
    20:00 +18°C° 0 mm 3 mps 762 mmHg 60%
    21:00 +17°C° 0 mm 3 mps 762 mmHg 59%
    22:00 +17°C° 0 mm 3 mps 762 mmHg 58%
    23:00 +17°C° 0 mm 3 mps 762 mmHg 59%

    26 May, Sunday

    Time Temperature Precipitation Wind Pressure Humidity
    00:00 +16°C° 0 mm 3 mps 761 mmHg 61%
    01:00 +14°C° 0 mm 3 mps 761 mmHg 62%
    02:00 +14°C° 0 mm 4 mps 761 mmHg 60%
    03:00 +14°C° 0 mm 4 mps 760 mmHg 58%
    04:00 +14°C° 0 mm 5 mps 760 mmHg 56%
    05:00 +14°C° 0 mm 5 mps 760 mmHg 55%
    06:00 +14°C° 0 mm 5 mps 760 mmHg 55%
    07:00 +14°C° 0 mm 5 mps 760 mmHg 55%
    08:00 +16°C° 0 mm 5 mps 760 mmHg 50%
    09:00 +19°C° 0 mm 6 mps 760 mmHg 46%
    10:00 +21°C° 0 mm 6 mps 761 mmHg 41%
    11:00 +21°C° 0 mm 6 mps 760 mmHg 43%
    12:00 +21°C° 0 mm 5 mps 759 mmHg 45%
    13:00 +21°C° 0 mm 5 mps 759 mmHg 47%
    14:00 +21°C° 0 mm 4 mps 759 mmHg 48%
    15:00 +21°C° 0 mm 4 mps 759 mmHg 49%
    16:00 +21°C° 0 mm 4 mps 759 mmHg 51%
    17:00 +20°C° 0 mm 4 mps 759 mmHg 53%
    18:00 +18°C° 0 mm 4 mps 759 mmHg 56%
    19:00 +15°C° 0 mm 5 mps 760 mmHg 59%
    20:00 +14°C° 0 mm 5 mps 760 mmHg 59%
    21:00 +14°C° 0 mm 5 mps 761 mmHg 60%
    22:00 +13°C° 0 mm 5 mps 761 mmHg 60%
    23:00 +13°C° 0 mm 5 mps 761 mmHg 60%

    27 May, Monday

    Time Temperature Precipitation Wind Pressure Humidity
    00:00 +11°C° 0 mm 6 mps 761 mmHg 60%
    01:00 +11°C° 0 mm 6 mps 761 mmHg 60%
    02:00 +10°C° 0 mm 6 mps 761 mmHg 61%
    03:00 +10°C° 0 mm 6 mps 761 mmHg 62%
    04:00 +10°C° 0 mm 6 mps 760 mmHg 63%
    05:00 +10°C° 0 mm 6 mps 761 mmHg 64%
    06:00 +10°C° 0 mm 5 mps 761 mmHg 64%
    07:00 +9°C° 0 mm 5 mps 762 mmHg 65%
    08:00 +12°C° 0 mm 5 mps 762 mmHg 60%
    09:00 +14°C° 0 mm 5 mps 762 mmHg 55%
    10:00 +16°C° 0 mm 5 mps 762 mmHg 51%
    11:00 +17°C° 0 mm 5 mps 761 mmHg 47%
    12:00 +19°C° 0 mm 5 mps 760 mmHg 43%
    13:00 +20°C° 0 mm 5 mps 760 mmHg 39%
    14:00 +20°C° 0 mm 5 mps 760 mmHg 41%
    15:00 +20°C° 0 mm 4 mps 759 mmHg 43%
    16:00 +19°C° 0 mm 4 mps 759 mmHg 45%
    17:00 +17°C° 0 mm 5 mps 760 mmHg 48%
    18:00 +15°C° 0 mm 5 mps 761 mmHg 50%
    19:00 +14°C° 0 mm 6 mps 761 mmHg 53%
    20:00 +13°C° 0 mm 6 mps 761 mmHg 55%
    21:00 +11°C° 0 mm 6 mps 762 mmHg 58%
    22:00 +11°C° 0 mm 6 mps 762 mmHg 60%
    23:00 +10°C° 0 mm 6 mps 762 mmHg 61%

    28 May, Tuesday

    Time Temperature Precipitation Wind Pressure Humidity
    00:00 +10°C° 0 mm 6 mps 762 mmHg 63%
    01:00 +10°C° 0 mm 6 mps 762 mmHg 64%
    02:00 +10°C° 0 mm 6 mps 762 mmHg 64%
    03:00 +10°C° 0 mm 6 mps 762 mmHg 65%
    04:00 +9°C° 0 mm 6 mps 761 mmHg 65%
    05:00 +9°C° 0 mm 6 mps 762 mmHg 66%
    06:00 +9°C° 0 mm 6 mps 762 mmHg 67%
    07:00 +9°C° 0 mm 6 mps 762 mmHg 68%
    08:00 +11°C° 0 mm 6 mps 762 mmHg 63%
    09:00 +13°C° 0 mm 6 mps 762 mmHg 59%
    10:00 +15°C° 0 mm 6 mps 762 mmHg 55%
    11:00 +16°C° 0 mm 6 mps 761 mmHg 51%
    12:00 +17°C° 0 mm 6 mps 760 mmHg 47%
    13:00 +19°C° 0 mm 6 mps 760 mmHg 43%
    14:00 +19°C° 0 mm 5 mps 759 mmHg 44%
    15:00 +19°C° 0 mm 5 mps 759 mmHg 45%
    16:00 +19°C° 0 mm 5 mps 759 mmHg 46%
    17:00 +16°C° 0 mm 5 mps 759 mmHg 48%
    18:00 +15°C° 0 mm 5 mps 760 mmHg 51%
    19:00 +13°C° 0 mm 5 mps 760 mmHg 54%
    20:00 +13°C° 0 mm 5 mps 760 mmHg 56%
    21:00 +11°C° 0 mm 6 mps 760 mmHg 57%
    22:00 +11°C° 0 mm 6 mps 760 mmHg 59%
    23:00 +11°C° 0 mm 6 mps 760 mmHg 59%
    Show more